Lexington Weather

Lexington, Massachusetts, USA

69°F
8/17/2022 7:29pm 
  • Lexington Conditions: Overcast
  • Temperature: 69.4°F / 20.8°CColder 0.6°F than last hour.
  • Dew Point: 57.6°FDecreased 1.8°Fsince last hour.
  • Relative Humidity: 66%Decreased 3.0% since last hour.
  • Wind: Calm, 10-min avg: Calm, gust: None
  • Barometer: 29.84 in Steady
  • Visibility: 10 miles
  • Rain Today: 0.00 in
  •   

Regional Weather Roundup
for Boston, MA

        
000
ASUS41 KBOX 150010
RWRBOX

REGIONAL WEATHER ROUNDUP
NATIONAL WEATHER SERVICE BOSTON/NORTON MA
800 PM EDT SUN AUG 14 2022

NOTE:  "FAIR" INDICATES FEW OR NO CLOUDS BELOW 12,000 FEET WITH NO 
SIGNIFICANT WEATHER AND/OR OBSTRUCTIONS TO VISIBILITY.

MAZALL-150100-
EASTERN MASSACHUSETTS
  
CITY           SKY/WX    TMP DP  RH WIND       PRES   REMARKS
BOSTON         MOCLDY    73  58  59 S9        30.02R                  
6HR MIN TEMP:  71; 6HR MAX TEMP:  80;                                

BEVERLY        MOCLDY    70  55  59 SE5       30.01S                  
LAWRENCE       MOCLDY    74  51  44 VRB3      30.03R                  
BEDFORD        MOCLDY    76  55  48 SE7       30.00R                  
BLUE HILL      NOT AVBL                                               
NORWOOD        MOCLDY    73  53  49 SE5       30.02R                  
MARSHFIELD     MOCLDY    68  61  77 CALM      30.03R                  
PLYMOUTH       MOCLDY    72  57  59 S3        30.04R                  
TAUNTON          N/A    N/A N/A N/A MISG      30.02S                  
NEW BEDFORD    MOCLDY    70  59  68 SW3       30.03R                  
$$

MAZALL-150100-
CAPE COD AND THE ISLANDS
  
CITY           SKY/WX    TMP DP  RH WIND       PRES   REMARKS
FALMOUTH       CLEAR     72  57  60 W10       30.05S                  
HYANNIS        MOCLDY    72  58  61 CALM      30.03S                  
CHATHAM        MOCLDY    71  58  63 SW3       30.05S                  
NANTUCKET      MOCLDY    68  64  87 S6        30.05S                  
MARTHAS VNYRD  MOCLDY    67  60  78 CALM      30.04S                  
$$
 
MAZALL-150100-
CENTRAL AND WESTERN MASSACHUSETTS
  
CITY           SKY/WX    TMP DP  RH WIND       PRES   REMARKS
WORCESTER      PTCLDY    73  49  42 CALM      30.04S                  
6HR MIN TEMP:  73; 6HR MAX TEMP:  79;                                

FITCHBURG      PTCLDY    73  44  35 CALM      30.02R                  
ORANGE         CLEAR     71  55  56 CALM      30.03R                  
SPRINGFIELD    PTCLDY    73  52  46 S6        29.98R                  
WESTFIELD      PTCLDY    74  52  46 S7        30.00R                  
NORTH ADAMS    CLEAR     67  57  70 CALM      30.03                   
PITTSFIELD     CLEAR     71  50  47 NE3       30.03R                  
$$
 
RIZALL-150100-
RHODE ISLAND
  
CITY           SKY/WX    TMP DP  RH WIND       PRES   REMARKS
PROVIDENCE     MOCLDY    73  54  51 S7        30.03R                  
6HR MIN TEMP:  73; 6HR MAX TEMP:  85;                                

NEWPORT        MOCLDY    69  58  67 S5        30.03R                  
BLOCK ISLAND   MOCLDY    70  59  68 SW8       30.04S                  
SMITHFIELD     MOCLDY    71  53  52 SW6       30.03R                  
WESTERLY       MOCLDY    73  58  59 SW3       30.03S                  
$$
 
CTZALL-150100-
CONNECTICUT
  
CITY           SKY/WX    TMP DP  RH WIND       PRES   REMARKS
BRADLEY INTL   PTCLDY    76  51  41 S10       30.01R                  
6HR MIN TEMP:  76; 6HR MAX TEMP:  84;                                

HARTFORD       PTCLDY    75  52  44 S8        30.01R                  
BRIDGEPORT     PTCLDY    75  56  51 S10       30.02R                  
DANBURY        CLEAR     75  50  41 S5        30.03R                  
GROTON         MOCLDY    72  60  66 SW7       30.02S                  
NEW HAVEN      PTCLDY    76  57  51 S8        30.03R                  
CHESTER        FAIR      72  54  53 S5        30.04S                  
MERIDEN        PTCLDY    74  51  44 S5        30.02R                  
WILLIMANTIC    MOCLDY    73  55  53 S5        30.03R                  
OXFORD         PTCLDY    71  53  52 S7        30.04R                  
$$

MEZ002-015-021-024-NHZ003-005-008-011-012-014-VTZ005-008-150100-
NORTHERN NEW ENGLAND
  
CITY           SKY/WX    TMP DP  RH WIND       PRES   REMARKS
PORTLAND ME    PTCLDY    71  53  52 S6        30.02R                  
6HR MIN TEMP:  71; 6HR MAX TEMP:  80;                                

BANGOR ME      MOCLDY    74  58  57 NE6       30.00R                  
CONCORD NH     CLEAR     75  48  38 VRB3      30.01S                  
MANCHESTER NH  PTCLDY    79  47  32 N5        30.00R                  
NASHUA NH      PTCLDY    76  53  44 SE8       30.02R                  
PORTSMOUTH NH  MOCLDY    71  52  51 S7        30.01R                  
JAFFREY NH     CLEAR     70  51  51 CALM      30.05R                  
KEENE NH       CLEAR     68  57  68 CALM        N/A                   
BURLINGTON VT  PTCLDY    74  50  42 NW3       30.03R                  
MT. WASHINGTON PTCLDY    48  43  81 N6          N/A                   
$$

NYZ052-076-150100-
EASTERN NEW YORK
  
CITY           SKY/WX    TMP DP  RH WIND       PRES   REMARKS
ALBANY         PTCLDY    75  49  39 NE6       30.01R                  
6HR MIN TEMP:  75; 6HR MAX TEMP:  82;                                

NEW YORK CITY  PTCLDY    75  54  47 S12       30.01R                  
6HR MIN TEMP:  75; 6HR MAX TEMP:  82;                                

$$
 
ANZALL-150100-
MARINE OBSERVATIONS
  
STATION/POSITION TIME  TEMP    WIND        PRES    VSBY  WAVE
                       AIR SEA DIR/SP/G                  HT/PER
                 (UTC) (F)     (DEG/KT/KT) (MB)    (MI)  (FT/S)
BOSTON BUOY      NOT AVBL
BUZZARDS BAY     NOT AVBL
NANTUCKET SOUND  NOT AVBL
MASS BAY-STELLWA NOT AVBL
ISLE OF SHOALS   NOT AVBL
S OF BLOCK IS    NOT AVBL
$$

......................KEY.........................
  SKY/WX - SKY CONDITION/PRESENT WEATHER
  TMP    - TEMPERATURE IN FAHRENHEIT
  DWPT   - DEWPOINT IN FAHRENHEIT
  RH     - RELATIVE HUMIDITY IN PERCENT
  WIND   - DIRECTION AND SPEED IN MPH
  PRES   - MEAN SEA LEVEL PRESSURE IN INCHES OF HG
  WCI    - WIND CHILL INDEX
  VSB    - VISIBILITY IN MILES
  HX     - HEAT INDEX
  TC     - TEMPERATURE IN CELSIUS
  VRB    - VARIABLE WIND DIRECTION
  N/A    - NOT AVAILABLE
  
      

Other recent Regional Weather Roundups

Wed Aug 17, 7:10pm

Wed Aug 17, 6:10pm

Wed Aug 17, 5:10pm

Wed Aug 17, 4:10pm

Wed Aug 17, 3:10pm

Wed Aug 17, 2:10pm

Wed Aug 17, 1:10pm

Wed Aug 17, 12:10pm

Wed Aug 17, 11:10am

Wed Aug 17, 10:10am

Wed Aug 17, 9:10am

Wed Aug 17, 8:10am

Wed Aug 17, 7:10am

Wed Aug 17, 6:10am

Wed Aug 17, 5:10am

Wed Aug 17, 4:10am

Wed Aug 17, 3:10am

Wed Aug 17, 2:10am

Wed Aug 17, 1:10am

Wed Aug 17, 12:10am

Tue Aug 16, 11:10pm

Tue Aug 16, 10:10pm

Tue Aug 16, 9:10pm

Tue Aug 16, 8:10pm

Tue Aug 16, 7:10pm

Tue Aug 16, 6:10pm

Tue Aug 16, 5:10pm

Tue Aug 16, 4:10pm

Tue Aug 16, 3:10pm

Tue Aug 16, 2:10pm

Tue Aug 16, 1:10pm

Tue Aug 16, 12:10pm

Tue Aug 16, 11:10am

Tue Aug 16, 10:10am

Tue Aug 16, 9:10am

Tue Aug 16, 8:10am

Tue Aug 16, 7:10am

Tue Aug 16, 6:10am

Tue Aug 16, 5:10am

Tue Aug 16, 4:10am

Tue Aug 16, 3:10am

Tue Aug 16, 2:10am

Tue Aug 16, 1:10am

Tue Aug 16, 12:10am

Mon Aug 15, 11:10pm

Mon Aug 15, 10:10pm

Mon Aug 15, 9:10pm

Mon Aug 15, 8:10pm

Mon Aug 15, 7:10pm

Mon Aug 15, 6:10pm

Mon Aug 15, 5:10pm

Mon Aug 15, 4:10pm

Mon Aug 15, 3:10pm

Mon Aug 15, 2:10pm

Mon Aug 15, 1:10pm

Mon Aug 15, 12:10pm

Mon Aug 15, 11:10am

Mon Aug 15, 10:10am

Mon Aug 15, 9:10am

Mon Aug 15, 8:10am

Mon Aug 15, 7:10am

Mon Aug 15, 6:10am

Mon Aug 15, 5:10am

Mon Aug 15, 4:10am

Mon Aug 15, 3:10am

Mon Aug 15, 2:10am

Mon Aug 15, 1:10am

Mon Aug 15, 12:10am

Sun Aug 14, 11:10pm

Sun Aug 14, 10:10pm

Sun Aug 14, 9:10pm

Sun Aug 14, 7:10pm

Sun Aug 14, 6:10pm

Sun Aug 14, 5:10pm

Sun Aug 14, 4:10pm

Sun Aug 14, 3:10pm

Sun Aug 14, 2:10pm

Sun Aug 14, 1:10pm

Sun Aug 14, 12:10pm

Sun Aug 14, 11:10am

Sun Aug 14, 10:10am

Sun Aug 14, 9:10am

Sun Aug 14, 8:10am

Sun Aug 14, 7:10am

Sun Aug 14, 6:10am

Sun Aug 14, 5:10am

Sun Aug 14, 4:10am

Sun Aug 14, 3:10am

Sun Aug 14, 2:10am

Sun Aug 14, 1:10am

Sun Aug 14, 12:10am

Sat Aug 13, 11:10pm

Sat Aug 13, 10:10pm

Sat Aug 13, 9:10pm

Sat Aug 13, 8:10pm

Sat Aug 13, 7:10pm

Sat Aug 13, 6:10pm

Sat Aug 13, 5:10pm

Sat Aug 13, 4:10pm

Sat Aug 13, 3:10pm

Sat Aug 13, 2:10pm

Sat Aug 13, 1:10pm

Sat Aug 13, 12:10pm

Sat Aug 13, 11:10am

Sat Aug 13, 10:10am

Sat Aug 13, 9:10am

Sat Aug 13, 8:10am

Sat Aug 13, 7:10am

Sat Aug 13, 6:10am

Sat Aug 13, 5:10am

Sat Aug 13, 4:10am

Sat Aug 13, 3:10am

Sat Aug 13, 2:10am

Sat Aug 13, 1:10am

Sat Aug 13, 12:10am

Fri Aug 12, 11:10pm

Fri Aug 12, 10:10pm

Fri Aug 12, 9:10pm

Fri Aug 12, 8:10pm

Fri Aug 12, 7:10pm

Fri Aug 12, 6:10pm

Fri Aug 12, 5:10pm

Fri Aug 12, 4:10pm

Fri Aug 12, 3:10pm

Fri Aug 12, 2:10pm

Fri Aug 12, 1:10pm

Fri Aug 12, 12:10pm

Fri Aug 12, 11:10am

Fri Aug 12, 10:10am

Fri Aug 12, 9:10am

Fri Aug 12, 8:10am

Fri Aug 12, 7:10am

Fri Aug 12, 6:10am

Fri Aug 12, 5:10am

Fri Aug 12, 4:10am

Fri Aug 12, 3:10am

Fri Aug 12, 2:10am

Fri Aug 12, 1:10am

Fri Aug 12, 12:10am

Thu Aug 11, 11:10pm

Thu Aug 11, 10:10pm

Thu Aug 11, 9:10pm

Thu Aug 11, 8:10pm

Thu Aug 11, 7:10pm

Thu Aug 11, 6:10pm

Thu Aug 11, 5:10pm

Thu Aug 11, 4:10pm

Thu Aug 11, 3:10pm

Thu Aug 11, 2:10pm

Thu Aug 11, 1:10pm

Thu Aug 11, 12:10pm

Thu Aug 11, 11:10am

Thu Aug 11, 10:10am

Thu Aug 11, 9:10am

Thu Aug 11, 8:10am

Thu Aug 11, 7:10am

Thu Aug 11, 6:10am

Thu Aug 11, 5:10am

Thu Aug 11, 4:10am

Thu Aug 11, 3:10am

Thu Aug 11, 2:10am

Thu Aug 11, 1:10am

Thu Aug 11, 12:10am

Wed Aug 10, 11:10pm

Wed Aug 10, 10:10pm

Wed Aug 10, 9:10pm

Wed Aug 10, 8:10pm

Meta data:

ID: c379dbda-31b9-45b8-a06c-e5de4ce8eaed
Link: https://api.weather.gov/products/c379dbda-31b9-45b8-a06c-e5de4ce8eaed